[[{"header":{"parameterUnit":"m.s-1","parameterCategory":1,"la1":30.2991,"la2":30.254,"lo1":-89.0895,"lo2":-89.0444,"dy":0.0017,"dx":0.0017,"nx":28,"ny":28,"refTime":"2024-08-20T03:00:00:Z","depth":0,"parameterNumber":2,"parameterNumberName":"U-component_of_WINDS"},"data":[0,0,0,0,0,0,0,0,0,0,0,0,0,0,0,0,0,0,0,0,0,0,0,0,0,0,0,0,0,0,0,0,0,0,0,0,0,0,0,0,0,0,0,0,0,0,0,0,0,0,0,0,0,0,0,0,0,0,-0.8597,-0.8598,0,-0.8763,-0.8765,-0.8767,-0.8803,-0.8801,-0.88,-0.8799,-0.8973,-0.8978,-0.8984,0,0,0,0,0,0,0,0,0,0,0,0,0,-0.8312,-0.8317,-0.8596,-0.8598,-0.8601,-0.8763,-0.8765,-0.8767,-0.8803,-0.8801,-0.88,-0.8798,-0.8971,-0.8977,-0.8984,0,0,0,0,0,0,0,0,0,0,0,0,0,-0.8453,-0.8318,-0.8596,-0.8638,-0.8643,-0.8762,-0.8765,-0.8768,-0.8803,-0.8801,-0.8799,-0.8798,-0.8968,-0.8977,-0.8985,-0.9076,0,0,-0.9012,-0.9016,0,0,0,0,0,0,0,0,-0.8445,-0.8463,-0.8629,-0.8635,-0.8641,-0.876,-0.8728,-0.8871,-0.8804,-0.8742,-0.8799,-0.8797,-0.8904,-0.8917,-0.8953,-0.9084,-0.9091,-0.9013,-0.9018,-0.9022,-0.9024,0,0,0,0,0,0,0,-0.8435,-0.8456,-0.8662,-0.8632,-0.8639,-0.8649,-0.8667,-0.8756,-0.8831,-0.8748,-0.8751,-0.877,-0.8906,-0.8944,-0.8957,-0.9094,-0.9012,-0.902,-0.9025,-0.9029,-0.9309,-0.9311,0,0,0,0,0,0,-0.8417,-0.8448,-0.8657,-0.8667,-0.8536,-0.8656,-0.8676,-0.8724,-0.8831,-0.8845,-0.8771,-0.8771,-0.8931,-0.8947,-0.8963,-0.9078,-0.9021,-0.903,-0.9035,-0.9307,-0.9309,-0.9312,0,0,0,0,0,0,-0.8411,-0.8436,-0.865,-0.8558,-0.8587,-0.8663,-0.8716,-0.8728,-0.8766,-0.8848,-0.8862,-0.8796,-0.893,-0.8951,-0.9048,-0.9084,-0.9034,-0.9041,-0.9304,-0.9308,-0.9311,-0.9305,0,0,0,0,0,0,-0.8403,-0.8433,-0.8468,-0.8559,-0.8591,-0.8731,-0.8718,-0.8733,-0.8781,-0.8782,-0.8875,-0.8889,-0.893,-0.9035,-0.9056,-0.9095,-0.9048,-0.9301,-0.9306,-0.931,-0.9303,-0.9308,-0.9313,0,0,0,0,0,-0.8392,-0.846,-0.8469,-0.8494,-0.8636,-0.8733,-0.8752,-0.8797,-0.8783,-0.8819,-0.8872,-0.8886,-0.9076,-0.9044,-0.9069,-0.9111,-0.9299,-0.9304,-0.9309,-0.93,-0.9307,-0.9313,0,0,0,0,0,0,-0.8372,-0.8473,-0.8484,-0.8583,-0.8649,-0.8739,-0.8785,-0.8802,-0.8874,-0.8872,-0.8926,-0.8947,-0.904,-0.9085,-0.9048,-0.9204,-0.9187,-0.9197,-0.9172,-0.9179,-0.9184,-0.9172,-0.9055,0,0,0,0,0,-0.8378,-0.8448,-0.8533,-0.8612,-0.8644,-0.8709,-0.8753,-0.8782,-0.8853,-0.8881,-0.8941,-0.9011,-0.9086,-0.9135,-0.9209,-0.9309,-0.9331,-0.935,-0.9355,-0.9359,-0.9367,-0.9425,-0.9435,-0.9329,-0.9328,-0.9328,0,0,-0.8394,-0.8457,-0.8498,-0.8609,-0.8664,-0.8736,-0.8732,-0.8808,-0.8863,-0.8893,-0.8988,-0.9034,-0.9115,-0.9214,-0.9261,-0.9254,-0.9401,-0.9365,-0.9367,-0.9374,-0.9431,-0.9441,-0.945,-0.9332,-0.9331,-0.9331,0,0,-0.8458,-0.8513,-0.8585,-0.864,-0.8722,-0.8765,-0.8782,-0.8869,-0.8901,-0.8997,-0.9022,-0.9087,-0.9216,-0.9273,-0.9319,-0.9404,-0.9421,-0.9427,-0.9454,-0.951,-0.9518,-0.9526,-0.9558,-0.9568,-0.9435,-0.9435,-0.9435,0,-0.8467,-0.8575,-0.862,-0.8696,-0.8744,-0.8774,-0.8849,-0.89,-0.9002,-0.9036,-0.9027,-0.9189,-0.9246,-0.9359,-0.938,-0.9415,-0.9438,-0.9417,-0.9513,-0.9521,-0.9529,-0.956,-0.9572,-0.9436,-0.9435,-0.9435,-0.9435,0,-0.8583,-0.8657,-0.8706,-0.8804,-0.8858,-0.8932,-0.899,-0.9039,-0.9063,-0.9107,-0.9205,-0.9273,-0.9362,-0.9391,-0.9415,-0.9508,-0.9501,-0.9502,-0.9486,-0.9539,-0.9569,-0.9581,-0.9436,-0.9436,-0.9436,-0.9436,0,0,-0.864,-0.8761,-0.8778,-0.8823,-0.8916,-0.8976,-0.9052,-0.9138,-0.918,-0.9249,-0.9316,-0.9424,-0.9425,-0.9477,-0.9508,-0.9556,-0.9621,-0.9551,-0.9554,-0.9563,-0.9729,-0.9729,-0.9742,-0.9632,-0.9634,-0.9636,-0.9723,0,-0.8717,-0.8853,-0.8896,-0.901,-0.908,-0.9109,-0.9176,-0.9241,-0.9283,-0.935,-0.9398,-0.9474,-0.9469,-0.9501,-0.955,-0.9603,-0.9656,-0.9597,-0.9695,-0.9698,-0.9675,-0.9758,-0.9758,-0.9836,-0.9735,-0.9737,-0.9738,0,-0.8825,-0.8896,-0.9017,-0.9101,-0.9133,-0.9191,-0.9274,-0.9337,-0.9411,-0.9439,-0.9497,-0.9524,-0.9606,-0.9584,-0.9698,-0.9657,-0.97,-0.9732,-0.9736,-0.9748,-0.9722,-0.9773,-0.9862,-0.9875,-0.9757,-0.9756,-0.9754,0,-0.8856,-0.8982,-0.9071,-0.9108,-0.9209,-0.925,-0.9294,-0.9366,-0.9415,-0.9488,-0.952,-0.9601,-0.9646,-0.9709,-0.9757,-0.9737,-0.9868,-0.9849,-0.9894,-0.9893,-0.9922,-0.992,-1.002,-0.9947,-0.9947,-0.9946,-0.9946,0,-0.8939,-0.9012,-0.9086,-0.9141,-0.9224,-0.9273,-0.9354,-0.94,-0.9464,-0.9529,-0.9559,-0.9619,-0.9679,-0.9748,-0.9787,-0.9876,-0.9896,-0.9922,-0.9931,-0.992,-0.9917,-0.995,-0.9946,-0.995,-0.9949,-0.9948,-0.9948,0,-0.8988,-0.9041,-0.914,-0.9226,-0.925,-0.9308,-0.9383,-0.9437,-0.9481,-0.9563,-0.9585,-0.9654,-0.9737,-0.9791,-0.9897,-0.9923,-1.002,-1.0028,-0.9995,-1.0,-1.0042,-1.0038,-1.0169,-1.0189,-1.01,-1.0101,-1.0102,0,-0.9038,-0.9095,-0.9187,-0.9233,-0.9277,-0.9349,-0.9399,-0.9449,-0.95,-0.959,-0.9634,-0.9718,-0.9788,-0.9919,-0.9979,-1.0061,-1.0071,-1.0112,-1.0084,-1.0071,-1.0074,-1.007,-1.0077,-1.0116,-1.0117,-1.0118,-1.0118,0,-0.9121,-0.9144,-0.9215,-0.9295,-0.9353,-0.9419,-0.9485,-0.952,-0.9582,-0.9638,-0.9722,-0.9776,-0.9884,-0.9968,-1.0054,-1.0101,-1.0121,-1.0126,-1.0141,-1.013,-1.0109,-1.0123,-1.0008,-1.0123,-1.0123,-1.0122,-1.0122,-1.0122,-0.9173,-0.9226,-0.9299,-0.9377,-0.9431,-0.9492,-0.9548,-0.9598,-0.9669,-0.976,-0.9785,-0.9873,-0.9947,-1.0066,-1.0113,-1.0184,-1.018,-1.0201,-1.0207,-1.0211,-1.0212,-1.0097,-1.02,-1.02,-1.02,-1.02,-1.02,0,-0.9259,-0.9308,-0.9378,-0.9469,-0.9531,-0.9542,-0.9615,-0.9666,-0.9743,-0.981,-0.9878,-0.9975,-1.0057,-1.0123,-1.0207,-1.0251,-1.0262,-1.0272,-1.027,-1.028,-1.0211,-1.019,-1.0261,-1.0261,-1.0261,-1.0261,-1.0261,-1.0261,-0.9311,-0.94,-0.9432,-0.9549,-0.9597,-0.9683,-0.9724,-0.9781,-0.9834,-0.9941,-1.0009,-1.0051,-1.0118,-1.0207,-1.0283,-1.03,-1.0331,-1.0338,-1.0358,-1.0292,-1.0285,-1.0279,-1.0259,-1.0344,-1.0344,-1.0422,-1.0422,-1.0423]},{"header":{"parameterUnit":"m.s-1","parameterCategory":1,"la1":30.2991,"la2":30.254,"lo1":-89.0895,"lo2":-89.0444,"dy":0.0017,"dx":0.0017,"nx":28,"ny":28,"refTime":"2024-08-20T03:00:00:Z","depth":0,"parameterNumber":3,"parameterNumberName":"V-component_of_WINDS"},"data":[0,0,0,0,0,0,0,0,0,0,0,0,0,0,0,0,0,0,0,0,0,0,0,0,0,0,0,0,0,0,0,0,0,0,0,0,0,0,0,0,0,0,0,0,0,0,0,0,0,0,0,0,0,0,0,0,0,0,-4.4585,-4.4586,0,-4.4672,-4.4673,-4.4674,-4.4607,-4.4604,-4.4601,-4.4598,-4.4683,-4.4688,-4.4693,0,0,0,0,0,0,0,0,0,0,0,0,0,-4.4356,-4.4361,-4.4584,-4.4586,-4.4587,-4.4671,-4.4673,-4.4674,-4.4607,-4.4604,-4.46,-4.4597,-4.4682,-4.4687,-4.4693,0,0,0,0,0,0,0,0,0,0,0,0,0,-4.445,-4.4362,-4.4584,-4.4564,-4.4563,-4.4671,-4.4673,-4.4674,-4.4608,-4.4604,-4.4599,-4.4595,-4.468,-4.4687,-4.4694,-4.4826,0,0,-4.4717,-4.472,0,0,0,0,0,0,0,0,-4.4445,-4.4459,-4.4566,-4.4565,-4.4564,-4.4624,-4.4623,-4.4725,-4.4609,-4.4591,-4.4598,-4.4593,-4.4667,-4.4675,-4.47,-4.483,-4.4834,-4.4717,-4.4722,-4.4725,-4.4727,0,0,0,0,0,0,0,-4.4439,-4.4455,-4.4619,-4.4567,-4.4567,-4.4549,-4.4557,-4.4642,-4.4652,-4.4592,-4.4587,-4.4599,-4.4665,-4.4694,-4.4702,-4.4835,-4.4717,-4.4724,-4.4728,-4.4731,-4.5077,-4.5081,0,0,0,0,0,0,-4.4435,-4.445,-4.4616,-4.4621,-4.4493,-4.4556,-4.4566,-4.4609,-4.4651,-4.4653,-4.4602,-4.4595,-4.4683,-4.4693,-4.4705,-4.4862,-4.4725,-4.4732,-4.4736,-4.5072,-4.5078,-4.5083,0,0,0,0,0,0,-4.443,-4.445,-4.4612,-4.4534,-4.4554,-4.4565,-4.4614,-4.4613,-4.4641,-4.4658,-4.4659,-4.463,-4.468,-4.4694,-4.4797,-4.4864,-4.4735,-4.4742,-4.5066,-4.5074,-4.508,-4.5178,0,0,0,0,0,0,-4.4424,-4.4449,-4.45,-4.4536,-4.4558,-4.4705,-4.4618,-4.4618,-4.4655,-4.4646,-4.4684,-4.4686,-4.4678,-4.4786,-4.4804,-4.4872,-4.4748,-4.506,-4.507,-4.5078,-4.5169,-4.5188,-4.5204,0,0,0,0,0,-4.4416,-4.4524,-4.4503,-4.4524,-4.4623,-4.4709,-4.4721,-4.471,-4.466,-4.4711,-4.4722,-4.4685,-4.4854,-4.4797,-4.4817,-4.4888,-4.5056,-4.5067,-4.5077,-4.5161,-4.5184,-4.5203,0,0,0,0,0,0,-4.4494,-4.4528,-4.4506,-4.4629,-4.4667,-4.4697,-4.4761,-4.4735,-4.4786,-4.4776,-4.4759,-4.4768,-4.4876,-4.4892,-4.4828,-4.5018,-4.4947,-4.4962,-4.5004,-4.5026,-4.5043,-4.5037,-4.4754,0,0,0,0,0,-4.4526,-4.4594,-4.4619,-4.4725,-4.4745,-4.4751,-4.4787,-4.4776,-4.4814,-4.4829,-4.4847,-4.4884,-4.4945,-4.4986,-4.5043,-4.5171,-4.5178,-4.5229,-4.5247,-4.5261,-4.5274,-4.5342,-4.5366,-4.5118,-4.5118,-4.5118,0,0,-4.4592,-4.4619,-4.4662,-4.4741,-4.4769,-4.4839,-4.4764,-4.4841,-4.4893,-4.484,-4.4939,-4.4953,-4.4993,-4.5109,-4.516,-4.5125,-4.5344,-4.5274,-4.5286,-4.5291,-4.5356,-4.5379,-4.54,-4.5125,-4.5124,-4.5123,0,0,-4.4748,-4.4775,-4.4866,-4.4896,-4.494,-4.4943,-4.4965,-4.5,-4.5008,-4.5107,-4.5069,-4.5128,-4.5234,-4.5265,-4.5294,-4.5461,-4.5429,-4.548,-4.5571,-4.5638,-4.5658,-4.5675,-4.5734,-4.5756,-4.5493,-4.5494,-4.5494,0,-4.4824,-4.4929,-4.4916,-4.4997,-4.5032,-4.4989,-4.5081,-4.5109,-4.5169,-4.5194,-4.5154,-4.5287,-4.531,-4.5432,-4.5473,-4.5498,-4.5522,-4.5476,-4.5656,-4.5673,-4.5689,-4.5746,-4.5768,-4.5499,-4.5499,-4.5498,-4.5498,0,-4.502,-4.5094,-4.5162,-4.5223,-4.5265,-4.5351,-4.535,-4.5395,-4.5379,-4.5386,-4.5486,-4.5513,-4.5575,-4.5603,-4.5588,-4.5723,-4.57,-4.5659,-4.5587,-4.5719,-4.5772,-4.5794,-4.5508,-4.5506,-4.5504,-4.5503,0,0,-4.5228,-4.5281,-4.5306,-4.5333,-4.5378,-4.5434,-4.5517,-4.5579,-4.5618,-4.566,-4.5729,-4.582,-4.5782,-4.5815,-4.5802,-4.5861,-4.5992,-4.5812,-4.5813,-4.5845,-4.6142,-4.6174,-4.6199,-4.597,-4.5975,-4.5978,-4.6139,0,-4.5387,-4.5533,-4.5524,-4.5661,-4.5729,-4.5688,-4.576,-4.5795,-4.5803,-4.586,-4.5868,-4.5933,-4.5878,-4.5898,-4.5954,-4.5964,-4.6051,-4.5952,-4.6033,-4.6036,-4.6025,-4.6227,-4.626,-4.6411,-4.6159,-4.6163,-4.6165,0,-4.5591,-4.5643,-4.5787,-4.5822,-4.585,-4.5916,-4.5972,-4.6027,-4.6065,-4.6067,-4.6104,-4.6082,-4.6164,-4.6091,-4.6203,-4.6136,-4.6169,-4.6179,-4.6184,-4.6192,-4.6109,-4.624,-4.6459,-4.6482,-4.6198,-4.6195,-4.6193,0,-4.5729,-4.5834,-4.5934,-4.5958,-4.6002,-4.6049,-4.6068,-4.6102,-4.614,-4.6188,-4.6213,-4.627,-4.6301,-4.6345,-4.6338,-4.6285,-4.6453,-4.6378,-4.6456,-4.6456,-4.6493,-4.6491,-4.6721,-4.6514,-4.6513,-4.6513,-4.6512,0,-4.5908,-4.5998,-4.5997,-4.6059,-4.6158,-4.6145,-4.6243,-4.6258,-4.6288,-4.6351,-4.6318,-4.6378,-4.6365,-4.6424,-4.6419,-4.6513,-4.6527,-4.653,-4.6527,-4.6533,-4.6533,-4.6554,-4.6544,-4.6519,-4.6518,-4.6516,-4.6515,0,-4.6079,-4.6082,-4.6188,-4.6221,-4.6231,-4.6303,-4.633,-4.6387,-4.6393,-4.6472,-4.649,-4.6498,-4.6565,-4.6563,-4.6639,-4.6635,-4.6751,-4.6736,-4.6739,-4.6736,-4.6814,-4.6807,-4.7066,-4.7099,-4.687,-4.6872,-4.6874,0,-4.6193,-4.6261,-4.6302,-4.6342,-4.6366,-4.6431,-4.647,-4.6459,-4.6501,-4.655,-4.6601,-4.6666,-4.6717,-4.6826,-4.6837,-4.6895,-4.6881,-4.6968,-4.689,-4.6893,-4.6883,-4.6879,-4.6886,-4.6984,-4.6986,-4.6988,-4.699,0,-4.6395,-4.6393,-4.6451,-4.651,-4.6558,-4.6603,-4.6645,-4.668,-4.6674,-4.6722,-4.6791,-4.6831,-4.6909,-4.6973,-4.7028,-4.7046,-4.7018,-4.7015,-4.7036,-4.7042,-4.7041,-4.7043,-4.6782,-4.7009,-4.7007,-4.7006,-4.7005,-4.7004,-4.6541,-4.66,-4.6638,-4.6704,-4.6734,-4.6774,-4.683,-4.6843,-4.6901,-4.6965,-4.6954,-4.7032,-4.7067,-4.7138,-4.7162,-4.7221,-4.719,-4.7221,-4.7228,-4.7236,-4.7245,-4.7032,-4.7231,-4.7231,-4.723,-4.723,-4.7229,0,-4.6741,-4.6764,-4.6825,-4.6885,-4.6936,-4.6906,-4.695,-4.6995,-4.7064,-4.71,-4.7151,-4.723,-4.7292,-4.7309,-4.7368,-4.7413,-4.7401,-4.7429,-4.7425,-4.743,-4.7269,-4.7246,-4.7437,-4.7437,-4.7437,-4.7437,-4.7437,-4.7437,-4.6852,-4.6951,-4.6953,-4.7066,-4.7087,-4.7164,-4.7192,-4.7228,-4.7257,-4.7348,-4.74,-4.7411,-4.7439,-4.75,-4.7555,-4.7558,-4.7581,-4.7615,-4.7612,-4.7462,-4.7441,-4.7422,-4.7399,-4.762,-4.762,-4.7768,-4.7769,-4.7771]}]]